Weather History for KRQB - June, 2014

Change the Weather History Date:

Friday, June 13, 2014

  Actual Average Record
Temperature  
Mean Temperature 54 °F -  
Max Temperature 61 °F 77 °F - (-1)
Min Temperature 46 °F 51 °F - (-1)
Degree Days  
Heating Degree Days 11    
Growing Degree Days 4 (Base 50)    
Moisture  
Dew Point 45 °F    
Average Humidity 70    
Maximum Humidity 97    
Minimum Humidity 47    
Precipitation  
Precipitation 0.00 in - - ()
Sea Level Pressure  
Sea Level Pressure 29.89 in    
Wind  
Wind Speed 6 mph (WNW)    
Max Wind Speed 16 mph    
Max Gust Speed 29 mph    
Visibility 10 miles    
Events      
Averages and records for this station are not official NWS values.
T = Trace of Precipitation, MM = Missing Value Source: NWS Daily Summary

Daily Weather History Graph

Daily Weather History Graph

Search for Another Location

Airport or City:

Trip Planner

Search our weather history database for the weather conditions in past years. The results will help you decide how hot, cold, wet, or windy it might be!

Date:

Astronomy

Jun. 13, 2014 Rise Set
Actual Time 5:59 AM EDT 9:24 PM EDT
Civil Twilight 5:23 AM EDT 10:00 PM EDT
Nautical Twilight 4:36 AM EDT 10:47 PM EDT
Astronomical Twilight 3:37 AM EDT 11:46 PM EDT
Moon 9:51 PM EDT (6/13) 6:40 AM EDT (6/13)
Length of Visible Light 16h 36m
Length of Day
15h 25m
Full, 100% of the Moon is Illuminated
Jun 13
Full
Jun 19
Last Quarter
Jun 27
New
Jul 5
First Quarter
Jul 12
Full

Hourly Weather History & Observations

Time (EDT) Temp. Dew Point Humidity Pressure Visibility Wind Dir Wind Speed Gust Speed Precip Events Conditions
12:15 AM 59.5 °F 50.2 °F 71% 29.77 in 10.0 mi NW 5.8 mph - N/A   Clear
12:35 AM 59.2 °F 50.5 °F 73% 29.77 in 10.0 mi Calm Calm - N/A   Clear
12:54 AM 57.9 °F 50.2 °F 75% 29.78 in 10.0 mi WNW 4.6 mph - N/A   Clear
1:15 AM 57.6 °F 49.3 °F 74% 29.78 in 10.0 mi WNW 4.6 mph - N/A   Mostly Cloudy
1:34 AM 57.2 °F 49.1 °F 74% 29.79 in 10.0 mi West 4.6 mph - N/A   Mostly Cloudy
1:55 AM 55.9 °F 48.6 °F 76% 29.79 in 10.0 mi West 4.6 mph - N/A   Scattered Clouds
2:15 AM 54.9 °F 48.2 °F 78% 29.79 in 10.0 mi Calm Calm - N/A   Scattered Clouds
2:34 AM 54.9 °F 47.7 °F 77% 29.79 in 10.0 mi Calm Calm - N/A   Mostly Cloudy
2:55 AM 53.8 °F 47.5 °F 79% 29.79 in 10.0 mi Calm Calm - N/A   Mostly Cloudy
3:15 AM 53.8 °F 47.1 °F 78% 29.79 in 10.0 mi Calm Calm - N/A   Scattered Clouds
3:34 AM 53.6 °F 46.8 °F 78% 29.79 in 10.0 mi Calm Calm - N/A   Scattered Clouds
3:55 AM 52.5 °F 46.6 °F 80% 29.79 in 10.0 mi West 3.5 mph - N/A   Clear
4:15 AM 52.2 °F 46.6 °F 81% 29.79 in 10.0 mi West 4.6 mph - N/A   Scattered Clouds
4:34 AM 52.2 °F 46.2 °F 80% 29.79 in 10.0 mi West 4.6 mph - N/A   Scattered Clouds
4:55 AM 51.4 °F 45.9 °F 81% 29.80 in 10.0 mi West 4.6 mph - N/A   Clear
5:15 AM 51.1 °F 45.7 °F 82% 29.80 in 10.0 mi West 5.8 mph - N/A   Clear
5:35 AM 50.7 °F 45.3 °F 82% 29.80 in 10.0 mi West 5.8 mph - N/A   Clear
5:55 AM 50.4 °F 45.1 °F 82% 29.81 in 10.0 mi West 5.8 mph - N/A   Clear
6:14 AM 50.4 °F 44.8 °F 81% 29.81 in 10.0 mi West 6.9 mph - N/A   Scattered Clouds
6:35 AM 51.8 °F 45.1 °F 78% 29.82 in 10.0 mi West 6.9 mph - N/A   Overcast
6:55 AM 51.8 °F 45.0 °F 77% 29.82 in 10.0 mi WNW 6.9 mph - N/A   Overcast
7:14 AM 52.2 °F 44.6 °F 75% 29.83 in 10.0 mi WNW 6.9 mph - N/A   Overcast
7:35 AM 52.3 °F 43.9 °F 73% 29.84 in 10.0 mi WNW 6.9 mph - N/A   Overcast
7:55 AM 52.3 °F 43.3 °F 71% 29.84 in 10.0 mi WNW 10.4 mph 16.1 mph N/A   Overcast
8:14 AM 52.2 °F 42.8 °F 70% 29.86 in 10.0 mi NW 12.7 mph 19.6 mph N/A   Overcast
8:35 AM 52.9 °F 43.2 °F 70% 29.86 in 10.0 mi WNW 10.4 mph 18.4 mph N/A   Overcast
8:55 AM 52.3 °F 42.4 °F 69% 29.87 in 10.0 mi WNW 13.8 mph 18.4 mph N/A   Overcast
9:14 AM 52.7 °F 42.3 °F 68% 29.87 in 10.0 mi NW 9.2 mph 17.3 mph N/A   Overcast
9:35 AM 53.8 °F 42.8 °F 66% 29.88 in 10.0 mi WNW 8.1 mph - N/A   Overcast
9:54 AM 53.1 °F 43.0 °F 69% 29.88 in 10.0 mi WNW 11.5 mph 17.3 mph N/A   Overcast
10:15 AM 54.3 °F 44.4 °F 69% 29.88 in 10.0 mi WNW 16.1 mph 21.9 mph N/A   Overcast
10:34 AM 53.8 °F 42.8 °F 66% 29.89 in 10.0 mi WNW 12.7 mph 20.7 mph N/A   Overcast
11:15 AM 54.5 °F 41.7 °F 62% 29.89 in 10.0 mi WNW 11.5 mph 21.9 mph N/A   Overcast
11:34 AM 54.7 °F 41.4 °F 61% 29.90 in 10.0 mi NW 11.5 mph 19.6 mph N/A   Overcast
11:55 AM 56.1 °F 41.4 °F 58% 29.90 in 10.0 mi NW 11.5 mph 18.4 mph N/A   Overcast
12:14 PM 56.8 °F 42.1 °F 58% 29.91 in 10.0 mi NW 13.8 mph 18.4 mph N/A   Overcast
12:35 PM 55.8 °F 41.2 °F 58% 29.91 in 10.0 mi West 12.7 mph 23.0 mph N/A   Overcast
1:14 PM 55.2 °F 41.4 °F 60% 29.93 in 10.0 mi WNW 12.7 mph 21.9 mph N/A   Overcast
1:35 PM 55.8 °F 41.9 °F 60% 29.93 in 10.0 mi WNW 13.8 mph 23.0 mph N/A   Overcast
1:55 PM 56.5 °F 42.4 °F 59% 29.93 in 10.0 mi WNW 15.0 mph 21.9 mph N/A   Mostly Cloudy
2:14 PM 55.4 °F 42.8 °F 63% 29.94 in 10.0 mi WNW 15.0 mph 23.0 mph N/A   Overcast
2:35 PM 55.8 °F 43.0 °F 62% 29.94 in 10.0 mi WNW 12.7 mph 20.7 mph N/A   Overcast
3:14 PM 56.7 °F 43.2 °F 61% 29.94 in 10.0 mi WNW 15.0 mph 28.8 mph N/A   Overcast
3:35 PM 56.7 °F 43.0 °F 60% 29.95 in 10.0 mi WNW 13.8 mph 26.5 mph N/A   Overcast
3:55 PM 56.1 °F 42.8 °F 61% 29.95 in 10.0 mi NW 12.7 mph 21.9 mph N/A   Overcast
4:14 PM 55.8 °F 42.4 °F 61% 29.95 in 10.0 mi WNW 11.5 mph 20.7 mph N/A   Overcast
4:35 PM 56.3 °F 42.4 °F 60% 29.95 in 10.0 mi WNW 9.2 mph 18.4 mph N/A   Overcast
5:14 PM 57.9 °F 42.8 °F 57% 29.95 in 10.0 mi NNW 8.1 mph - N/A   Overcast
7:35 PM 61.7 °F 41.4 °F 47% 29.95 in 10.0 mi NNW 6.9 mph 17.3 mph N/A   Clear
7:55 PM 61.5 °F 42.3 °F 49% 29.95 in 10.0 mi NNW 4.6 mph - N/A   Clear
8:14 PM 61.0 °F 41.7 °F 49% 29.95 in 10.0 mi NW 5.8 mph - N/A   Clear
8:35 PM 60.3 °F 42.4 °F 52% 29.96 in 10.0 mi NW 3.5 mph - N/A   Clear
8:55 PM 59.4 °F 43.2 °F 55% 29.97 in 10.0 mi Calm Calm - N/A   Clear
9:14 PM 56.1 °F 46.4 °F 70% 29.97 in 10.0 mi Calm Calm - N/A   Clear
9:35 PM 54.0 °F 45.3 °F 73% 29.98 in 10.0 mi West 3.5 mph - N/A   Clear
9:55 PM 52.0 °F 45.7 °F 79% 29.99 in 10.0 mi West 4.6 mph - N/A   Clear
10:14 PM 51.4 °F 45.3 °F 80% 30.00 in 10.0 mi West 4.6 mph - N/A   Clear
10:35 PM 49.8 °F 45.1 °F 84% 30.01 in 10.0 mi West 4.6 mph - N/A   Clear
10:55 PM 49.5 °F 44.2 °F 82% 30.02 in 10.0 mi West 4.6 mph - N/A   Clear
11:14 PM 48.7 °F 45.0 °F 87% 30.03 in 10.0 mi NW 3.5 mph - N/A   Clear
11:35 PM 47.5 °F 46.4 °F 96% 30.03 in 10.0 mi Calm Calm - N/A   Clear
11:55 PM 46.9 °F 46.2 °F 97% 30.04 in 10.0 mi Calm Calm - N/A   Clear